LNK28Y FAOR-FBSK

Flight info

Callsign LNK28Y
Flight time 0h 37m
Altitude 30000
Route VASUR3A VASUR UQ24 DUSLI DUSLI1D
Aircraft E170/M-SDE3GILORVW/S

Departure

Time 2026-04-20 15:44
Airport O.R. Tambo International Airport (FAOR)

Arrival

Time 2026-04-20 16:22
Airport Sir Seretse Khama International Airport (FBSK)
Time Latitude Longitude Altitude Speed Heading
2026-04-20 15:23 -26.13833 28.23099 5562 ft 0 kts 184°
2026-04-20 15:37 -26.13828 28.23100 5562 ft 3 kts 183°
2026-04-20 15:37 -26.13801 28.23097 5562 ft 4 kts 162°
2026-04-20 15:37 -26.13784 28.23080 5561 ft 3 kts 101°
2026-04-20 15:37 -26.13783 28.23071 5561 ft 0 kts 95°
2026-04-20 15:40 -26.13785 28.23095 5562 ft 5 kts 95°
2026-04-20 15:40 -26.13789 28.23146 5562 ft 8 kts 95°
2026-04-20 15:40 -26.13796 28.23224 5562 ft 12 kts 95°
2026-04-20 15:40 -26.13818 28.23317 5561 ft 13 kts 143°
2026-04-20 15:41 -26.13866 28.23392 5562 ft 13 kts 104°
2026-04-20 15:41 -26.13924 28.23457 5561 ft 14 kts 184°
2026-04-20 15:41 -26.14026 28.23425 5561 ft 16 kts 199°
2026-04-20 15:41 -26.14139 28.23391 5561 ft 18 kts 196°
2026-04-20 15:42 -26.14263 28.23350 5561 ft 19 kts 197°
2026-04-20 15:42 -26.14397 28.23310 5562 ft 21 kts 197°
2026-04-20 15:42 -26.14537 28.23280 5562 ft 22 kts 167°
2026-04-20 15:42 -26.14620 28.23392 5557 ft 11 kts 98°
2026-04-20 15:43 -26.14578 28.23457 5558 ft 12 kts 20°
2026-04-20 15:43 -26.14526 28.23472 5557 ft 0 kts 16°
2026-04-20 15:43 -26.14518 28.23475 5558 ft 0 kts 16°
2026-04-20 15:43 -26.14516 28.23475 5558 ft 2 kts 16°
2026-04-20 15:44 -26.14270 28.23549 5561 ft 76 kts 15°
2026-04-20 15:44 -26.13506 28.23787 5558 ft 149 kts 10°
2026-04-20 15:44 -26.12449 28.24159 6361 ft 159 kts 18°
2026-04-20 15:44 -26.11445 28.24672 7161 ft 165 kts 17°
2026-04-20 15:45 -26.10314 28.25173 7594 ft 187 kts 14°
2026-04-20 15:45 -26.08999 28.25615 8049 ft 206 kts
2026-04-20 15:45 -26.07527 28.25723 8538 ft 221 kts 342°
2026-04-20 15:45 -26.06038 28.25104 9182 ft 237 kts 332°
2026-04-20 15:46 -26.04503 28.24273 9813 ft 254 kts 330°
2026-04-20 15:46 -26.02932 28.23291 10386 ft 270 kts 325°
2026-04-20 15:46 -26.01308 28.22122 10931 ft 285 kts 324°
2026-04-20 15:46 -25.99612 28.20884 11508 ft 298 kts 324°
2026-04-20 15:47 -25.97847 28.19597 12176 ft 307 kts 324°
2026-04-20 15:47 -25.96053 28.18285 13064 ft 310 kts 324°
2026-04-20 15:47 -25.94247 28.16962 13998 ft 313 kts 324°
2026-04-20 15:47 -25.92419 28.15628 14928 ft 314 kts 324°
2026-04-20 15:48 -25.90583 28.14287 15870 ft 317 kts 323°
2026-04-20 15:48 -25.88736 28.12937 16791 ft 319 kts 323°
2026-04-20 15:48 -25.86872 28.11576 17599 ft 322 kts 323°
2026-04-20 15:48 -25.84993 28.10204 18456 ft 324 kts 322°
2026-04-20 15:49 -25.83122 28.08836 19173 ft 327 kts 322°
2026-04-20 15:49 -25.81216 28.07445 19893 ft 329 kts 322°
2026-04-20 15:49 -25.79298 28.06048 20666 ft 331 kts 322°
2026-04-20 15:49 -25.77366 28.04641 21406 ft 334 kts 323°
2026-04-20 15:50 -25.75411 28.03218 22095 ft 337 kts 323°
2026-04-20 15:50 -25.73437 28.01781 22750 ft 341 kts 323°
2026-04-20 15:50 -25.71438 28.00327 23436 ft 344 kts 323°
2026-04-20 15:50 -25.69428 27.98866 24032 ft 347 kts 323°
2026-04-20 15:51 -25.67402 27.97395 24581 ft 350 kts 323°
2026-04-20 15:51 -25.65361 27.95909 25129 ft 352 kts 323°
2026-04-20 15:51 -25.63300 27.94412 25664 ft 355 kts 322°
2026-04-20 15:51 -25.61230 27.92909 26186 ft 357 kts 322°
2026-04-20 15:52 -25.59170 27.91354 26691 ft 358 kts 317°
2026-04-20 15:52 -25.57406 27.89431 27189 ft 356 kts 307°
2026-04-20 15:52 -25.55885 27.87259 27680 ft 357 kts 304°
2026-04-20 15:53 -25.53015 27.82724 28609 ft 361 kts 300°
2026-04-20 15:53 -25.51749 27.80316 29052 ft 363 kts 298°
2026-04-20 15:53 -25.50499 27.77880 29481 ft 365 kts 298°
2026-04-20 15:53 -25.49254 27.75427 29876 ft 368 kts 297°
2026-04-20 15:54 -25.48008 27.72966 30005 ft 373 kts 298°
2026-04-20 15:54 -25.46728 27.70442 30071 ft 376 kts 298°
2026-04-20 15:54 -25.44135 27.65337 30107 ft 381 kts 298°
2026-04-20 15:55 -25.41533 27.60220 30088 ft 381 kts 298°
2026-04-20 15:55 -25.38937 27.55120 30093 ft 381 kts 298°
2026-04-20 15:56 -25.36351 27.50045 30094 ft 381 kts 298°
2026-04-20 15:56 -25.33752 27.44952 29986 ft 380 kts 298°
2026-04-20 15:57 -25.32450 27.42400 29399 ft 376 kts 298°
2026-04-20 15:57 -25.31170 27.39898 28866 ft 374 kts 298°
2026-04-20 15:57 -25.29890 27.37392 28321 ft 374 kts 298°
2026-04-20 15:57 -25.28632 27.34933 27785 ft 367 kts 298°
2026-04-20 15:58 -25.27394 27.32515 27238 ft 356 kts 298°
2026-04-20 15:58 -25.26190 27.30162 26692 ft 347 kts 298°
2026-04-20 15:58 -25.25015 27.27868 26152 ft 339 kts 299°
2026-04-20 15:58 -25.23865 27.25626 25629 ft 332 kts 299°
2026-04-20 15:59 -25.22739 27.23431 25115 ft 326 kts 299°
2026-04-20 15:59 -25.21615 27.21276 24605 ft 320 kts 300°
2026-04-20 15:59 -25.20576 27.19127 24108 ft 315 kts 296°
2026-04-20 15:59 -25.19631 27.16960 23640 ft 311 kts 296°
2026-04-20 16:00 -25.18709 27.14817 23075 ft 307 kts 295°
2026-04-20 16:00 -25.17807 27.12699 22516 ft 303 kts 295°
2026-04-20 16:00 -25.16928 27.10632 21963 ft 300 kts 295°
2026-04-20 16:00 -25.16031 27.08537 21424 ft 297 kts 295°
2026-04-20 16:01 -25.15164 27.06513 20902 ft 294 kts 295°
2026-04-20 16:01 -25.14291 27.04472 20387 ft 292 kts 295°
2026-04-20 16:01 -25.13425 27.02448 19876 ft 290 kts 295°
2026-04-20 16:01 -25.12563 27.00436 19367 ft 290 kts 295°
2026-04-20 16:02 -25.11705 26.98431 18870 ft 289 kts 294°
2026-04-20 16:02 -25.10845 26.96427 18383 ft 288 kts 294°
2026-04-20 16:02 -25.09989 26.94430 17829 ft 287 kts 294°
2026-04-20 16:02 -25.09138 26.92442 17271 ft 286 kts 295°
2026-04-20 16:03 -25.08286 26.90458 16727 ft 286 kts 295°
2026-04-20 16:03 -25.07434 26.88475 16227 ft 285 kts 295°
2026-04-20 16:03 -25.06596 26.86524 15720 ft 285 kts 295°
2026-04-20 16:03 -25.05749 26.84553 15209 ft 284 kts 296°
2026-04-20 16:04 -25.04901 26.82585 14693 ft 284 kts 296°
2026-04-20 16:04 -25.04052 26.80613 14187 ft 284 kts 296°
2026-04-20 16:04 -25.03209 26.78655 13768 ft 281 kts 296°
2026-04-20 16:04 -25.02372 26.76715 13317 ft 279 kts 296°
2026-04-20 16:05 -25.01542 26.74789 12863 ft 277 kts 296°
2026-04-20 16:05 -25.00717 26.72873 12426 ft 276 kts 296°
2026-04-20 16:05 -24.99896 26.70967 11988 ft 274 kts 296°
2026-04-20 16:05 -24.99079 26.69072 11563 ft 273 kts 295°
2026-04-20 16:06 -24.98179 26.67242 11222 ft 270 kts 302°
2026-04-20 16:06 -24.97107 26.65571 10965 ft 264 kts 306°
2026-04-20 16:06 -24.96001 26.63987 10705 ft 259 kts 307°
2026-04-20 16:06 -24.94886 26.62441 10437 ft 257 kts 307°
2026-04-20 16:07 -24.93711 26.60952 10220 ft 258 kts 311°
2026-04-20 16:07 -24.92460 26.59514 10002 ft 261 kts 312°
2026-04-20 16:07 -24.91198 26.58078 9770 ft 261 kts 311°
2026-04-20 16:07 -24.89933 26.56639 9513 ft 261 kts 312°
2026-04-20 16:08 -24.89096 26.55687 9352 ft 261 kts 312°
2026-04-20 16:08 -24.87828 26.54254 9106 ft 261 kts 313°
2026-04-20 16:08 -24.86148 26.52358 8784 ft 260 kts 313°
2026-04-20 16:08 -24.84888 26.50933 8540 ft 260 kts 313°
2026-04-20 16:09 -24.83630 26.49509 8348 ft 258 kts 313°
2026-04-20 16:09 -24.82785 26.48553 8254 ft 258 kts 313°
2026-04-20 16:09 -24.81533 26.47138 8116 ft 258 kts 313°
2026-04-20 16:09 -24.80284 26.45723 7977 ft 258 kts 313°
2026-04-20 16:10 -24.79032 26.44310 7838 ft 258 kts 313°
2026-04-20 16:10 -24.77782 26.42900 7687 ft 257 kts 313°
2026-04-20 16:10 -24.76538 26.41493 7538 ft 257 kts 313°
2026-04-20 16:10 -24.75290 26.40083 7384 ft 257 kts 313°
2026-04-20 16:11 -24.74043 26.38675 7232 ft 257 kts 313°
2026-04-20 16:11 -24.72798 26.37272 7087 ft 255 kts 313°
2026-04-20 16:11 -24.71585 26.35902 6943 ft 251 kts 313°
2026-04-20 16:11 -24.70370 26.34532 6801 ft 249 kts 313°
2026-04-20 16:12 -24.69162 26.33168 6656 ft 249 kts 314°
2026-04-20 16:12 -24.67947 26.31802 6522 ft 249 kts 314°
2026-04-20 16:12 -24.66736 26.30438 6390 ft 249 kts 314°
2026-04-20 16:12 -24.65527 26.29075 6252 ft 247 kts 314°
2026-04-20 16:13 -24.64348 26.27750 6107 ft 237 kts 314°
2026-04-20 16:13 -24.63216 26.26473 6022 ft 230 kts 314°
2026-04-20 16:13 -24.62096 26.25215 6001 ft 231 kts 314°
2026-04-20 16:13 -24.60964 26.23944 5996 ft 233 kts 314°
2026-04-20 16:14 -24.59828 26.22669 6000 ft 234 kts 314°
2026-04-20 16:14 -24.58700 26.21391 5997 ft 230 kts 314°
2026-04-20 16:14 -24.57616 26.20170 5984 ft 217 kts 314°
2026-04-20 16:14 -24.56590 26.19018 5975 ft 205 kts 314°
2026-04-20 16:15 -24.55616 26.17932 5967 ft 199 kts 316°
2026-04-20 16:15 -24.54568 26.16979 5956 ft 193 kts 322°
2026-04-20 16:15 -24.53464 26.16147 5947 ft 193 kts 327°
2026-04-20 16:15 -24.52279 26.15406 5850 ft 196 kts 329°
2026-04-20 16:16 -24.51082 26.14696 5651 ft 196 kts 330°
2026-04-20 16:16 -24.49880 26.13989 5432 ft 195 kts 330°
2026-04-20 16:16 -24.48695 26.13292 5257 ft 189 kts 330°
2026-04-20 16:16 -24.47549 26.12611 5199 ft 191 kts 329°
2026-04-20 16:17 -24.46457 26.11779 5150 ft 192 kts 307°
2026-04-20 16:17 -24.46088 26.10418 5115 ft 191 kts 264°
2026-04-20 16:17 -24.46607 26.09084 5116 ft 198 kts 240°
2026-04-20 16:17 -24.47348 26.07850 5123 ft 185 kts 237°
2026-04-20 16:18 -24.48060 26.06731 5091 ft 175 kts 237°
2026-04-20 16:18 -24.48705 26.05623 5092 ft 171 kts 242°
2026-04-20 16:18 -24.49286 26.04478 5084 ft 172 kts 245°
2026-04-20 16:18 -24.49827 26.03296 4987 ft 176 kts 244°
2026-04-20 16:19 -24.50411 26.02174 4796 ft 162 kts 243°
2026-04-20 16:19 -24.50952 26.01119 4593 ft 150 kts 244°
2026-04-20 16:19 -24.51444 26.00119 4392 ft 147 kts 243°
2026-04-20 16:19 -24.51901 25.99174 4200 ft 139 kts 246°
2026-04-20 16:20 -24.52355 25.98237 4011 ft 140 kts 243°
2026-04-20 16:20 -24.52826 25.97299 3810 ft 143 kts 245°
2026-04-20 16:20 -24.53311 25.96334 3741 ft 145 kts 243°
2026-04-20 16:20 -24.53800 25.95353 3584 ft 147 kts 245°
2026-04-20 16:21 -24.54276 25.94368 3424 ft 146 kts 243°
2026-04-20 16:21 -24.54750 25.93420 3310 ft 131 kts 244°
2026-04-20 16:21 -24.55131 25.92628 3291 ft 101 kts 241°
2026-04-20 16:21 -24.55401 25.92091 3296 ft 70 kts 242°
2026-04-20 16:22 -24.55535 25.91826 3293 ft 29 kts 243°
2026-04-20 16:22 -24.55555 25.91770 3291 ft 1 kts 202°
2026-04-20 16:22 -24.55561 25.91773 3291 ft 2 kts 131°
2026-04-20 16:22 -24.55557 25.91793 3291 ft 4 kts 65°
2026-04-20 16:23 -24.55538 25.91829 3293 ft 7 kts 58°
2026-04-20 16:23 -24.55500 25.91896 3294 ft 14 kts 59°
2026-04-20 16:23 -24.55445 25.92012 3295 ft 19 kts 62°
2026-04-20 16:23 -24.55428 25.92117 3296 ft 13 kts 126°
2026-04-20 16:24 -24.55514 25.92180 3294 ft 17 kts 149°
2026-04-20 16:24 -24.55599 25.92248 3294 ft 13 kts 141°
2026-04-20 16:24 -24.55669 25.92292 3295 ft 10 kts 160°
2026-04-20 16:24 -24.55688 25.92308 3295 ft 3 kts 127°
2026-04-20 16:25 -24.55691 25.92312 3295 ft 0 kts 127°